Location: *
(28.3744°N, 81.5492°W)
Time: 03:27:27
(UTC+00:00)

Cosmos 1441 Rocket - Pass Details

Date: 15 June 2025
Orbit: 436 x 463 km, 81.1° (Epoch: 11 July)

Event Time Altitude Azimuth Distance (km) Brightness Sun altitude
Rises 09:39:37 0° 176° (S) 2,455 6.3 -10.1°
Reaches altitude 10° 09:41:43 10° 170° (S) 1,591 5.4 -9.7°
Maximum altitude 09:45:05 48° 95° (E) 607 4.0 -9.1°
Drops below altitude 10° 09:48:29 10° 20° (NNE) 1,612 6.6 -8.5°
Sets 09:50:37 0° 15° (NNE) 2,493 7.5 -8.1°
